sat.trackr.live / text

‹ back to catalog

STARLINK-32267

NORAD 60363 · 2024-138J

PAYLOAD ACTIVE UNKNOWN

§ Identity

Operator
Country
US
Launch date
2024-08-04
Launch site
AFWTR
Launch vehicle
Mass (kg)
RCS (m²)

Purposes: comms

External: N2YO · Heavens-Above · Gunter

§ Orbital elements

Epoch: 2026-05-25T03:59:14.532288Z

Period
94.11 min
Inclination
53.1616°
Eccentricity
0.0001036
Mean motion
15.30195826 rev/d
Perigee alt
474.5 km
Apogee alt
475.9 km
Semi-major
6,853.4 km
B*
5.2517e-5
RAAN
314.5802°
Arg perigee
92.8712°
Mean anomaly
267.2408°
Rev number
10,233

§ Raw data

STARLINK-322671 60363U 24138J   26145.16614042  .00001196  00000+0  52517-4 0  99982 60363  53.1616 314.5802 0001036  92.8712 267.2408 15.30195826102332

JSON: /api/v1/satellites/60363 · /tle

For live sub-satellite position, see the globe view (requires WebGL).

§ Visibility from observer

Set your observer location to see the next 7 days of passes ≥ 10°. The values pass through the URL so the page stays shareable.

No JS? Fill the form by hand. The geolocation button needs JavaScript.